| time (UTC) | temp F | wind direction | speed MPH | gust MPH | rain 1hr in | rain 24hr in | rain mn in | humidity % | barometer mb |
| 20260906163016 | 56 | 202 | 0.0 | 0.0 | 0.00 | 0.00 | 0.00 | 86 | 1018.2 |
| 20260906161517 | 56 | 202 | 0.0 | 0.0 | 0.00 | 0.00 | 0.00 | 85 | 1018.3 |
| 20260906160013 | 56 | 202 | 0.0 | 0.0 | 0.00 | 0.00 | 0.00 | 85 | 1018.3 |
| 20260906154523 | 56 | 202 | 0.0 | 0.0 | 0.00 | 0.00 | 0.00 | 84 | 1018.3 |
| 20260906153011 | 57 | 202 | 0.0 | 0.0 | 0.00 | 0.00 | 0.00 | 84 | 1018.4 |
| 20260906151509 | 57 | 202 | 0.0 | 0.0 | 0.00 | 0.00 | 0.00 | 85 | 1018.6 |
| 20260906150009 | 56 | 202 | 0.0 | 0.0 | 0.00 | 0.00 | 0.00 | 86 | 1018.7 |
| 20260906144513 | 56 | 202 | 0.0 | 0.0 | 0.00 | 0.00 | 0.00 | 87 | 1018.7 |
| 20260906143003 | 55 | 202 | 0.0 | 0.0 | 0.00 | 0.00 | 0.00 | 86 | 1018.6 |
| 20260906141501 | 55 | 202 | 0.0 | 0.0 | 0.00 | 0.00 | 0.00 | 86 | 1018.5 |
| 20260906140101 | 56 | 202 | 0.0 | 0.0 | 0.00 | 0.00 | 0.00 | 84 | 1018.5 |
| 20260906134558 | 56 | 202 | 0.0 | 0.0 | 0.00 | 0.00 | 0.00 | 85 | 1018.4 |
| 20260906133103 | 56 | 202 | 0.0 | 0.0 | 0.00 | 0.00 | 0.00 | 85 | 1018.4 |
| 20260906131602 | 56 | 202 | 0.0 | 0.0 | 0.00 | 0.00 | 0.00 | 83 | 1018.4 |
| 20260906130059 | 57 | 202 | 0.0 | 0.0 | 0.00 | 0.00 | 0.00 | 83 | 1018.4 |
| 20260906124555 | 57 | 202 | 0.0 | 0.0 | 0.00 | 0.00 | 0.00 | 81 | 1018.5 |
| 20260906123153 | 58 | 202 | 0.0 | 0.0 | 0.00 | 0.00 | 0.00 | 81 | 1018.4 |
| 20260906121553 | 59 | 202 | 0.0 | 0.0 | 0.00 | 0.00 | 0.00 | 79 | 1018.5 |
| 20260906120114 | 60 | 202 | 0.0 | 0.0 | 0.00 | 0.00 | 0.00 | 77 | 1018.5 |
| 20260906114601 | 61 | 202 | 0.0 | 0.0 | 0.00 | 0.00 | 0.00 | 76 | 1018.4 |
| 20260906113049 | 61 | 202 | 0.0 | 0.0 | 0.00 | 0.00 | 0.00 | 75 | 1018.3 |
| 20260906111553 | 62 | 202 | 0.0 | 3.0 | 0.00 | 0.00 | 0.00 | 75 | 1018.3 |
| 20260906110047 | 62 | 200 | 1.0 | 3.0 | 0.00 | 0.00 | 0.00 | 74 | 1018.3 |
| 20260906104547 | 62 | 200 | 2.0 | 7.0 | 0.00 | 0.00 | 0.00 | 74 | 1018.0 |
| 20260906103050 | 62 | 172 | 2.0 | 5.0 | 0.00 | 0.00 | 0.00 | 74 | 1017.7 |
| 20260906101543 | 62 | 148 | 1.0 | 8.0 | 0.00 | 0.00 | 0.00 | 73 | 1017.6 |
| 20260906100050 | 62 | 169 | 2.0 | 9.0 | 0.00 | 0.00 | 0.00 | 73 | 1017.3 |
| 20260906094548 | 62 | 138 | 4.0 | 7.0 | 0.00 | 0.00 | 0.00 | 73 | 1017.1 |
| 20260906093039 | 62 | 134 | 2.0 | 7.0 | 0.00 | 0.00 | 0.00 | 73 | 1016.7 |
| 20260906091537 | 63 | 138 | 2.0 | 7.0 | 0.00 | 0.00 | 0.00 | 72 | 1016.6 |
| 20260906090033 | 63 | 110 | 2.0 | 7.0 | 0.00 | 0.00 | 0.00 | 71 | 1016.5 |
| 20260906084532 | 63 | 133 | 3.0 | 9.0 | 0.00 | 0.00 | 0.00 | 70 | 1016.4 |
| 20260906083029 | 64 | 190 | 2.0 | 13.0 | 0.00 | 0.00 | 0.00 | 69 | 1016.1 |
| 20260906081524 | 64 | 114 | 5.0 | 11.0 | 0.00 | 0.00 | 0.00 | 67 | 1016.0 |
| 20260906080022 | 65 | 92 | 3.0 | 10.0 | 0.00 | 0.00 | 0.00 | 64 | 1015.6 |
| 20260906074522 | 65 | 146 | 4.0 | 10.0 | 0.00 | 0.00 | 0.00 | 57 | 1015.4 |
| 20260906073020 | 67 | 82 | 3.0 | 10.0 | 0.00 | 0.00 | 0.00 | 54 | 1015.0 |
| 20260906071516 | 67 | 101 | 4.0 | 10.0 | 0.00 | 0.00 | 0.00 | 51 | 1014.8 |
| 20260906070021 | 69 | 133 | 7.0 | 14.0 | 0.00 | 0.00 | 0.00 | 48 | 1014.5 |
| 20260906064511 | 71 | 152 | 3.0 | 9.0 | 0.00 | 0.00 | 0.00 | 46 | 1014.1 |
| 20260906063009 | 73 | 162 | 6.0 | 12.0 | 0.00 | 0.00 | 0.00 | 43 | 1013.7 |
| 20260906061510 | 75 | 148 | 8.0 | 16.0 | 0.00 | 0.00 | 0.00 | 38 | 1013.5 |
| 20260906060006 | 76 | 211 | 4.0 | 10.0 | 0.00 | 0.00 | 0.00 | 33 | 1013.4 |
| 20260906054505 | 77 | 265 | 3.0 | 7.0 | 0.00 | 0.00 | 0.00 | 33 | 1013.2 |
| 20260906053004 | 76 | 29 | 2.0 | 5.0 | 0.00 | 0.00 | 0.00 | 34 | 1013.2 |
| 20260906051502 | 76 | 229 | 3.0 | 8.0 | 0.00 | 0.00 | 0.00 | 33 | 1013.1 |
| 20260906050002 | 76 | 159 | 4.0 | 13.0 | 0.00 | 0.00 | 0.00 | 34 | 1013.0 |
| 20260906044602 | 75 | 218 | 4.0 | 9.0 | 0.00 | 0.00 | 0.00 | 35 | 1012.9 |
| 20260906043059 | 76 | 193 | 6.0 | 10.0 | 0.00 | 0.00 | 0.00 | 35 | 1012.9 |
| 20260906041558 | 75 | 173 | 4.0 | 11.0 | 0.00 | 0.00 | 0.00 | 36 | 1012.6 |
| 20260906040104 | 75 | 171 | 5.0 | 9.0 | 0.00 | 0.00 | 0.00 | 35 | 1012.6 |
| 20260906034556 | 75 | 247 | 2.0 | 8.0 | 0.00 | 0.00 | 0.00 | 36 | 1012.7 |
| 20260906033103 | 75 | 237 | 2.0 | 12.0 | 0.00 | 0.00 | 0.00 | 36 | 1012.8 |
| 20260906031610 | 75 | 99 | 3.0 | 11.0 | 0.00 | 0.00 | 0.00 | 36 | 1012.6 |
| 20260906030051 | 74 | 239 | 4.0 | 8.0 | 0.00 | 0.00 | 0.00 | 37 | 1012.7 |
| 20260906024559 | 73 | 284 | 5.0 | 9.0 | 0.00 | 0.00 | 0.00 | 38 | 1012.6 |
| 20260906023057 | 73 | 184 | 5.0 | 12.0 | 0.00 | 0.00 | 0.00 | 37 | 1012.9 |
| 20260906021546 | 72 | 194 | 5.0 | 10.0 | 0.00 | 0.00 | 0.00 | 38 | 1012.8 |
| 20260906020044 | 72 | 173 | 5.0 | 9.0 | 0.00 | 0.00 | 0.00 | 38 | 1012.8 |
| 20260906014541 | 71 | 207 | 3.0 | 14.0 | 0.00 | 0.00 | 0.00 | 38 | 1013.0 |
| 20260906013038 | 71 | 201 | 7.0 | 14.0 | 0.00 | 0.00 | 0.00 | 39 | 1012.9 |
| 20260906011535 | 70 | 245 | 5.0 | 17.0 | 0.00 | 0.00 | 0.00 | 40 | 1013.1 |
| 20260906010045 | 70 | 284 | 4.0 | 14.0 | 0.00 | 0.00 | 0.00 | 40 | 1013.1 |
| 20260906004532 | 69 | 213 | 4.0 | 10.0 | 0.00 | 0.00 | 0.00 | 41 | 1013.1 |
| 20260906003031 | 69 | 187 | 5.0 | 14.0 | 0.00 | 0.00 | 0.00 | 42 | 1013.0 |
| 20260906001533 | 68 | 196 | 7.0 | 12.0 | 0.00 | 0.00 | 0.00 | 43 | 1013.1 |
| 20260906000024 | 68 | 294 | 4.0 | 11.0 | 0.00 | 0.00 | 0.00 | 42 | 1012.9 |
| 20260905234521 | 67 | 219 | 3.0 | 9.0 | 0.00 | 0.00 | 0.00 | 44 | 1012.9 |
| 20260905233017 | 66 | 196 | 4.0 | 8.0 | 0.00 | 0.00 | 0.00 | 45 | 1012.6 |
| 20260905231513 | 65 | 213 | 4.0 | 10.0 | 0.00 | 0.00 | 0.00 | 46 | 1012.7 |
| 20260905230024 | 65 | 247 | 3.0 | 7.0 | 0.00 | 0.00 | 0.00 | 46 | 1012.6 |
| 20260905224516 | 64 | 336 | 3.0 | 11.0 | 0.00 | 0.00 | 0.00 | 46 | 1012.5 |
| 20260905223013 | 63 | 280 | 4.0 | 11.0 | 0.00 | 0.00 | 0.00 | 47 | 1012.3 |
| 20260905221506 | 63 | 270 | 3.0 | 11.0 | 0.00 | 0.00 | 0.00 | 48 | 1012.4 |
| 20260905220002 | 62 | 188 | 2.0 | 11.0 | 0.00 | 0.00 | 0.00 | 49 | 1011.9 |
| 20260905214557 | 62 | 229 | 2.0 | 8.0 | 0.00 | 0.00 | 0.00 | 49 | 1011.7 |
| 20260905213100 | 61 | 192 | 2.0 | 11.0 | 0.00 | 0.00 | 0.00 | 51 | 1011.0 |
| 20260905211603 | 61 | 215 | 3.0 | 9.0 | 0.00 | 0.00 | 0.00 | 51 | 1011.1 |
| 20260905210057 | 60 | 264 | 3.0 | 11.0 | 0.00 | 0.00 | 0.00 | 52 | 1011.0 |
| 20260905204543 | 59 | 234 | 3.0 | 8.0 | 0.00 | 0.00 | 0.00 | 54 | 1010.6 |
| 20260905203038 | 59 | 203 | 2.0 | 7.0 | 0.00 | 0.00 | 0.00 | 53 | 1010.6 |
| 20260905201547 | 57 | 229 | 1.0 | 6.0 | 0.00 | 0.00 | 0.00 | 56 | 1009.8 |
| 20260905200036 | 56 | 167 | 0.0 | 3.0 | 0.00 | 0.00 | 0.00 | 58 | 1009.9 |
| 20260905194531 | 56 | 95 | 0.0 | 3.0 | 0.00 | 0.00 | 0.00 | 56 | 1010.3 |
| 20260905193027 | 57 | 94 | 0.0 | 2.0 | 0.00 | 0.00 | 0.00 | 54 | 1009.4 |
| 20260905191524 | 58 | 114 | 1.0 | 5.0 | 0.00 | 0.00 | 0.00 | 52 | 1008.9 |
| 20260905190021 | 60 | 145 | 2.0 | 5.0 | 0.00 | 0.00 | 0.00 | 49 | 1008.9 |
| 20260905184517 | 61 | 302 | 2.0 | 8.0 | 0.00 | 0.00 | 0.00 | 47 | 1007.9 |
| 20260905183027 | 61 | 312 | 2.0 | 6.0 | 0.00 | 0.00 | 0.00 | 45 | 1008.0 |
| 20260905181511 | 62 | 265 | 5.0 | 11.0 | 0.00 | 0.00 | 0.00 | 44 | 1007.6 |
| 20260905180009 | 62 | 285 | 3.0 | 12.0 | 0.00 | 0.00 | 0.00 | 44 | 1007.5 |
| 20260905174507 | 63 | 253 | 2.0 | 14.0 | 0.00 | 0.00 | 0.00 | 43 | 1007.5 |
| 20260905173003 | 64 | 277 | 4.0 | 12.0 | 0.00 | 0.00 | 0.00 | 45 | 1007.1 |
| 20260905171501 | 64 | 273 | 3.0 | 11.0 | 0.00 | 0.00 | 0.00 | 45 | 1006.8 |
| 20260905170112 | 64 | 288 | 3.0 | 8.0 | 0.00 | 0.00 | 0.00 | 46 | 1007.3 |
| 20260905164557 | 65 | 234 | 1.0 | 7.0 | 0.00 | 0.00 | 0.00 | 46 | 1007.2 |